#timestamp,LO_Frequency,Hit,StdDev 
1594152015.7,286046996.6,N
1594152035.5,286046998.4,N
1594152055.4,286046999.4,N
1594152075.2,286046999.2,N
1594152095.0,286046999.6,N
1594152095.9,286046999.6,N
1594152115.8,286046998.8,N
1594152135.6,286046998.8,N
1594152155.4,286046998.3,N
1594152175.3,286046999.1,N
1594152195.1,286046999.1,N
1594152215.9,286046998.8,N
1594152235.7,286046998.6,N
1594152255.5,286046998.9,N
1594152275.4,286046997.3,N
1594152295.2,286046997.2,N
1594152315.0,286046997.0,N
1594152315.9,286046997.0,N
1594152335.8,286046997.7,N
1594152355.6,286046999.1,N
1594152375.5,286046996.9,Y
1594152395.3,286046999.4,P
1594152415.1,286046998.3,N
1594152435.9,286046998.9,N
1594152455.7,286046999.5,N
1594152475.6,286046998.3,Y
1594152495.4,286047000.6,P
1594152515.2,286046998.6,N
1594152535.1,286046999.4,N
1594152536.0,286046999.4,N
1594152555.8,286047001.0,N
1594152575.6,286047001.0,N
1594152595.5,286047001.0,N
1594152615.3,286047000.9,N
1594152635.2,286047000.9,N
1594152655.9,286046998.3,N
1594152675.7,286046998.5,N
1594152695.6,286047001.1,N
1594152715.4,286046998.5,N
1594152735.3,286047000.7,N
1594152755.1,286047000.4,N
1594152756.0,286047000.4,N
1594152775.8,286046999.7,N
1594152795.7,286047000.9,N
1594152815.5,286047000.0,N
1594152835.3,286047001.1,N
1594152855.2,286047001.1,N
1594152875.0,286046999.0,N
1594152875.9,286046999.0,N
1594152895.8,286046998.7,N
1594152915.6,286047000.3,N
1594152935.4,286046999.8,N
1594152955.3,286046999.8,N
1594152975.1,286047002.2,N
1594152995.9,286047001.4,N
1594153015.7,286047002.3,N
1594153035.5,286047001.8,N
1594153055.4,286047003.9,Y
1594153075.2,286046999.9,P
1594153095.1,286047001.2,P
1594153096.0,286047001.2,N
1594153115.8,286047000.0,N
1594153135.6,286047002.8,Y
1594153155.5,286047000.0,P
1594153175.3,286047000.1,N
1594153195.2,286047000.4,N
1594153215.9,286047000.4,N
1594153235.7,286047000.6,N
1594153255.6,286046998.6,Y
1594153275.4,286046999.3,P
1594153295.2,286046998.7,N
1594153315.1,286046999.3,N
1594153316.0,286046999.3,N
1594153335.8,286046998.6,N
1594153355.7,286046998.6,N
1594153375.5,286046998.7,N
1594153395.3,286047001.1,N
1594153415.2,286047000.9,N
1594153435.0,286047001.0,N
1594153435.9,286047001.0,N
1594153455.8,286047000.2,N
1594153475.6,286047002.8,N
1594153495.4,286047000.9,N
1594153515.3,286047001.1,N
1594153535.1,286047002.4,N
1594153555.8,286047002.8,N
1594153575.7,286047000.4,N
1594153595.5,286047001.0,N
1594153615.4,286047000.5,N
1594153635.2,286046999.8,N
1594153655.0,286047000.2,N
1594153655.9,286047000.2,N
1594153675.8,286047002.5,N
1594153695.6,286047000.1,N
1594153715.4,286047002.8,N
1594153735.3,286047000.4,N
1594153755.1,286047001.1,N
1594153775.9,286047001.0,N
1594153795.7,286047002.8,N
1594153815.5,286047000.5,N
1594153835.4,286047000.2,N
1594153855.2,286047002.8,N
1594153875.1,286047002.5,N
1594153876.0,286047002.5,N
1594153895.8,286047002.0,N
1594153915.6,286047001.4,N
1594153935.5,286047004.4,Y
1594153955.3,286047002.3,P
1594153975.2,286047000.4,N
1594153995.9,286046999.8,N
1594154015.7,286047002.0,N
1594154035.6,286047000.9,N
1594154055.4,286047000.5,N
1594154075.2,286047000.4,N
1594154095.1,286047002.6,Y
1594154096.0,286047002.6,P
1594154115.8,286046998.5,N
1594154135.7,286047000.1,N
1594154155.5,286047001.9,N
1594154175.3,286047003.3,N
1594154195.2,286047005.8,Y
1594154215.0,286047005.2,P
1594154215.9,286047005.2,N
1594154235.8,286047003.0,N
1594154255.6,286047003.7,N
1594154275.4,286047005.2,Y
1594154295.3,286047003.5,P
1594154315.1,286047005.5,P
1594154335.9,286047009.2,P
1594154355.7,286047010.3,Y
1594154375.5,286047003.1,P
1594154395.4,286047004.1,P
1594154415.2,286047005.1,P
1594154435.1,286047006.8,Y
1594154436.0,286047006.8,P
1594154455.8,286047005.2,P
1594154475.6,286047006.8,P
1594154495.5,286047008.2,Y
1594154515.3,286047005.9,P
1594154535.2,286047005.1,P
1594154555.9,286047005.6,P
1594154575.7,286047005.2,Y
1594154595.6,286046998.2,P
1594154615.4,286046999.9,N
1594154635.2,286047000.9,N
1594154655.1,286046999.4,N
1594154656.0,286046999.4,N
1594154675.8,286046999.1,N
1594154695.7,286047001.0,N
1594154715.5,286047000.1,N
1594154735.3,286047000.0,N
1594154755.2,286047002.3,N
1594154775.0,286046998.8,N
1594154775.9,286046998.8,N
1594154795.7,286046998.8,N
1594154815.6,286047000.9,N
1594154835.4,286046999.9,N
1594154855.3,286047001.3,N
1594154875.1,286047002.5,N
1594154876.0,286047002.5,N
1594154895.8,286046999.7,N
1594154915.7,286046999.4,N
1594154935.5,286046998.1,N
1594154955.3,286047000.4,N
1594154975.2,286047000.2,N
1594154995.0,286046998.6,N
1594154995.9,286046998.6,N
1594155015.8,286046999.3,N
1594155035.6,286046998.9,N
1594155055.4,286046996.7,N
1594155075.3,286046997.3,N
1594155095.1,286046996.7,N
1594155115.8,286046997.7,N
1594155135.7,286046997.7,N
1594155155.5,286046995.3,Y
1594155175.4,286046995.2,P
1594155195.2,286046998.0,N
1594155215.0,286046996.1,N
1594155215.9,286046996.1,N
1594155235.8,286046993.6,Y
1594155255.6,286046997.0,P
1594155275.5,286046995.4,P
1594155295.3,286046998.0,N
1594155315.1,286046996.7,Y
1594155335.9,286047002.4,P
1594155355.7,286046998.3,N
1594155375.6,286047000.8,N
1594155395.4,286046999.1,N
1594155415.2,286046996.5,N
1594155435.1,286046996.5,N
1594155436.0,286046996.5,N
1594155455.8,286046996.8,N
1594155475.6,286046996.8,N
1594155495.5,286046997.3,N
1594155515.3,286046997.1,N
1594155535.2,286046995.5,N
1594155555.9,286046995.6,N
1594155575.7,286046993.3,Y
1594155595.6,286046994.9,P
